Zurück zum Katalog

SL-8 DEB

AktivLEO
NORAD 21402·DEBRIS·🇷🇺 Russia

Gestartet Feb 12, 1991 von Plesetsk Cosmodrome

Loading…

Nächste Überflüge (nächste 24 Stunden)

TLE

AktuellSource: Space-Track

Epoche: Sep 14, 2026, 14:40 UTC

1 21402U 91009BR  26257.61127426  .00000009  00000-0  22850-3 0  9998
2 21402  74.0251 122.7187 0135793 249.7870 136.3466 12.18417622579636

Verfolge SL-8 DEB in Echtzeit mit AllMySat

Download on the App Store